Time,TemperatureF,DewpointF,PressureIn,WindDirection,WindDirectionDegrees,WindSpeedMPH,WindSpeedGustMPH,Humidity,HourlyPrecipIn,Conditions,Clouds,dailyrainin,SoftwareType,DateUTC
2013-10-04 00:35:00,66.1,60.4,30.08,ENE,69,0.0,0.0,82,0.00,,,0.00,Wunderground v.1.15,2013-10-04 04:35:00,
2013-10-04 00:36:00,66.1,60.1,30.08,ENE,69,0.0,0.0,81,0.00,,,0.00,Wunderground v.1.15,2013-10-04 04:36:00,
2013-10-04 00:38:00,66.1,60.1,30.08,ENE,69,0.0,0.0,81,0.00,,,0.00,Wunderground v.1.15,2013-10-04 04:38:00,
2013-10-04 00:39:00,66.1,60.1,30.08,ENE,70,0.0,0.0,81,0.00,,,0.00,Wunderground v.1.15,2013-10-04 04:39:00,
2013-10-04 00:40:00,66.0,60.0,30.08,ENE,69,0.0,0.0,81,0.00,,,0.00,Wunderground v.1.15,2013-10-04 04:40:00,
2013-10-04 00:44:00,66.0,60.3,30.08,ENE,70,0.0,0.0,82,0.00,,,0.00,Wunderground v.1.15,2013-10-04 04:44:00,
2013-10-04 00:50:00,65.8,60.2,30.08,ENE,69,0.0,0.0,82,0.00,,,0.00,Wunderground v.1.15,2013-10-04 04:50:00,
2013-10-04 00:55:00,65.6,60.3,30.08,ENE,69,0.0,0.0,83,0.00,,,0.00,Wunderground v.1.15,2013-10-04 04:55:00,
2013-10-04 01:01:00,65.6,60.3,30.08,ENE,69,0.0,0.0,83,0.00,,,0.00,Wunderground v.1.15,2013-10-04 05:01:00,
2013-10-04 01:06:00,65.3,60.3,30.07,ENE,70,0.0,1.0,84,0.00,,,0.00,Wunderground v.1.15,2013-10-04 05:06:00,
2013-10-04 01:12:00,65.2,60.2,30.07,ENE,69,0.0,0.0,84,0.00,,,0.00,Wunderground v.1.15,2013-10-04 05:12:00,
2013-10-04 01:18:00,65.0,60.0,30.07,ENE,69,1.0,2.0,84,0.00,,,0.00,Wunderground v.1.15,2013-10-04 05:18:00,
2013-10-04 01:22:00,65.0,60.0,30.07,ENE,69,1.0,1.0,84,0.00,,,0.00,Wunderground v.1.15,2013-10-04 05:22:00,
2013-10-04 01:26:00,65.0,60.0,30.07,ENE,69,1.0,1.0,84,0.00,,,0.00,Wunderground v.1.15,2013-10-04 05:26:00,
2013-10-04 01:30:00,64.8,59.9,30.07,ENE,69,0.0,0.0,84,0.00,,,0.00,Wunderground v.1.15,2013-10-04 05:30:00,
2013-10-04 01:32:00,64.8,59.9,30.07,ENE,69,0.0,0.0,84,0.00,,,0.00,Wunderground v.1.15,2013-10-04 05:32:00,
2013-10-04 01:37:00,64.7,59.8,30.07,ENE,69,0.0,0.0,84,0.00,,,0.00,Wunderground v.1.15,2013-10-04 05:37:00,
2013-10-04 01:42:00,64.7,59.8,30.07,ENE,69,0.0,2.0,84,0.00,,,0.00,Wunderground v.1.15,2013-10-04 05:42:00,
2013-10-04 01:48:00,65.0,59.7,30.07,ENE,69,1.0,2.0,83,0.00,,,0.00,Wunderground v.1.15,2013-10-04 05:48:00,
2013-10-04 01:53:00,65.0,59.7,30.07,ENE,69,0.0,1.0,83,0.00,,,0.00,Wunderground v.1.15,2013-10-04 05:53:00,
2013-10-04 01:59:00,65.0,59.7,30.07,ENE,69,0.0,0.0,83,0.00,,,0.00,Wunderground v.1.15,2013-10-04 05:59:00,
2013-10-04 02:04:00,65.0,59.7,30.07,ENE,70,0.0,0.0,83,0.00,,,0.00,Wunderground v.1.15,2013-10-04 06:04:00,
2013-10-04 02:10:00,65.0,59.7,30.07,ENE,69,0.0,0.0,83,0.00,,,0.00,Wunderground v.1.15,2013-10-04 06:10:00,
2013-10-04 02:15:00,65.2,59.6,30.07,ENE,69,0.0,0.0,82,0.00,,,0.00,Wunderground v.1.15,2013-10-04 06:15:00,
2013-10-04 02:21:00,65.2,59.6,30.07,ENE,69,0.0,0.0,82,0.00,,,0.00,Wunderground v.1.15,2013-10-04 06:21:00,
2013-10-04 02:26:00,65.2,59.9,30.07,ENE,69,0.0,0.0,83,0.00,,,0.00,Wunderground v.1.15,2013-10-04 06:26:00,
2013-10-04 02:31:00,65.0,59.7,30.07,ENE,69,0.0,3.0,83,0.00,,,0.00,Wunderground v.1.15,2013-10-04 06:31:00,
2013-10-04 02:37:00,65.2,59.6,30.07,ENE,69,0.0,3.0,82,0.00,,,0.00,Wunderground v.1.15,2013-10-04 06:37:00,
2013-10-04 02:43:00,65.2,59.6,30.07,ENE,69,0.0,0.0,82,0.00,,,0.00,Wunderground v.1.15,2013-10-04 06:43:00,
2013-10-04 02:48:00,65.2,59.6,30.07,ENE,69,0.0,0.0,82,0.00,,,0.00,Wunderground v.1.15,2013-10-04 06:48:00,
2013-10-04 02:53:00,65.2,59.6,30.07,ENE,70,0.0,3.0,82,0.00,,,0.00,Wunderground v.1.15,2013-10-04 06:53:00,
2013-10-04 02:59:00,65.0,59.7,30.07,ENE,69,1.0,2.0,83,0.00,,,0.00,Wunderground v.1.15,2013-10-04 06:59:00,
2013-10-04 03:04:00,64.8,59.5,30.07,ENE,69,0.0,2.0,83,0.00,,,0.00,Wunderground v.1.15,2013-10-04 07:04:00,
2013-10-04 03:10:00,64.7,59.8,30.07,ENE,69,0.0,0.0,84,0.00,,,0.00,Wunderground v.1.15,2013-10-04 07:10:00,
2013-10-04 03:15:00,64.5,59.6,30.07,ENE,69,1.0,3.0,84,0.00,,,0.00,Wunderground v.1.15,2013-10-04 07:15:00,
2013-10-04 03:21:00,64.3,59.4,30.08,ENE,69,1.0,2.0,84,0.00,,,0.00,Wunderground v.1.15,2013-10-04 07:21:00,
2013-10-04 03:26:00,64.3,59.4,30.08,ENE,69,1.0,2.0,84,0.00,,,0.00,Wunderground v.1.15,2013-10-04 07:26:00,
2013-10-04 03:32:00,64.3,59.4,30.08,ENE,69,0.0,2.0,84,0.00,,,0.00,Wunderground v.1.15,2013-10-04 07:32:00,
2013-10-04 03:37:00,64.2,59.9,30.07,ENE,69,1.0,3.0,86,0.00,,,0.00,Wunderground v.1.15,2013-10-04 07:37:00,
2013-10-04 03:43:00,64.0,59.7,30.07,ENE,69,1.0,1.0,86,0.00,,,0.00,Wunderground v.1.15,2013-10-04 07:43:00,
2013-10-04 03:48:00,64.2,59.6,30.07,ENE,69,1.0,3.0,85,0.00,,,0.00,Wunderground v.1.15,2013-10-04 07:48:00,
2013-10-04 03:54:00,64.3,59.7,30.07,ENE,69,1.0,3.0,85,0.00,,,0.00,Wunderground v.1.15,2013-10-04 07:54:00,
2013-10-04 03:59:00,64.2,59.6,30.07,ENE,69,1.0,1.0,85,0.00,,,0.00,Wunderground v.1.15,2013-10-04 07:59:00,
2013-10-04 04:06:00,64.2,59.6,30.07,ENE,69,1.0,2.0,85,0.00,,,0.00,Wunderground v.1.15,2013-10-04 08:06:00,
2013-10-04 04:11:00,64.3,59.7,30.07,ENE,69,0.0,2.0,85,0.00,,,0.00,Wunderground v.1.15,2013-10-04 08:11:00,
2013-10-04 04:17:00,64.3,59.7,30.07,ENE,69,0.0,2.0,85,0.00,,,0.00,Wunderground v.1.15,2013-10-04 08:17:00,
2013-10-04 04:22:00,64.5,59.9,30.07,ENE,70,0.0,0.0,85,0.00,,,0.00,Wunderground v.1.15,2013-10-04 08:22:00,
2013-10-04 04:28:00,64.5,59.9,30.07,ENE,69,0.0,0.0,85,0.00,,,0.00,Wunderground v.1.15,2013-10-04 08:28:00,
2013-10-04 04:33:00,64.5,59.9,30.07,ENE,70,0.0,0.0,85,0.00,,,0.00,Wunderground v.1.15,2013-10-04 08:33:00,
2013-10-04 04:39:00,64.5,60.2,30.07,ENE,69,1.0,2.0,86,0.00,,,0.00,Wunderground v.1.15,2013-10-04 08:39:00,
2013-10-04 04:44:00,64.5,60.5,30.07,ENE,69,1.0,3.0,87,0.00,,,0.00,Wunderground v.1.15,2013-10-04 08:44:00,
2013-10-04 04:49:00,64.7,60.7,30.07,ENE,69,2.0,2.0,87,0.00,,,0.00,Wunderground v.1.15,2013-10-04 08:49:00,
2013-10-04 04:55:00,64.7,60.7,30.07,ENE,69,1.0,2.0,87,0.00,,,0.00,Wunderground v.1.15,2013-10-04 08:55:00,
2013-10-04 05:00:00,64.5,60.5,30.07,ENE,69,0.0,0.0,87,0.00,,,0.00,Wunderground v.1.15,2013-10-04 09:00:00,
2013-10-04 05:06:00,64.7,60.7,30.07,ENE,70,0.0,2.0,87,0.00,,,0.00,Wunderground v.1.15,2013-10-04 09:06:00,
2013-10-04 05:11:00,64.7,60.7,30.07,ENE,69,0.0,0.0,87,0.00,,,0.00,Wunderground v.1.15,2013-10-04 09:11:00,
2013-10-04 05:17:00,64.8,60.8,30.07,ENE,69,0.0,0.0,87,0.00,,,0.00,Wunderground v.1.15,2013-10-04 09:17:00,
2013-10-04 05:22:00,64.7,60.7,30.07,ENE,69,0.0,0.0,87,0.00,,,0.00,Wunderground v.1.15,2013-10-04 09:22:00,
2013-10-04 05:28:00,64.7,61.1,30.07,ENE,69,0.0,0.0,88,0.00,,,0.00,Wunderground v.1.15,2013-10-04 09:28:00,
2013-10-04 05:33:00,64.5,60.9,30.07,ENE,69,0.0,0.0,88,0.00,,,0.00,Wunderground v.1.15,2013-10-04 09:33:00,
2013-10-04 05:39:00,64.3,60.7,30.07,ENE,69,0.0,2.0,88,0.00,,,0.00,Wunderground v.1.15,2013-10-04 09:39:00,
2013-10-04 05:44:00,64.2,60.9,30.07,ENE,69,0.0,1.0,89,0.00,,,0.00,Wunderground v.1.15,2013-10-04 09:44:00,
2013-10-04 05:50:00,64.0,60.7,30.07,ENE,69,0.0,0.0,89,0.00,,,0.00,Wunderground v.1.15,2013-10-04 09:50:00,
2013-10-04 05:55:00,64.0,60.7,30.08,ENE,69,0.0,0.0,89,0.00,,,0.00,Wunderground v.1.15,2013-10-04 09:55:00,
2013-10-04 06:00:00,64.0,60.7,30.08,ENE,69,0.0,0.0,89,0.00,,,0.00,Wunderground v.1.15,2013-10-04 10:00:00,
2013-10-04 06:06:00,63.9,60.6,30.08,ENE,70,0.0,0.0,89,0.00,,,0.00,Wunderground v.1.15,2013-10-04 10:06:00,
2013-10-04 06:12:00,63.7,60.7,30.08,ENE,69,0.0,0.0,90,0.00,,,0.00,Wunderground v.1.15,2013-10-04 10:12:00,
2013-10-04 06:17:00,63.4,60.7,30.08,ENE,69,0.0,0.0,91,0.00,,,0.00,Wunderground v.1.15,2013-10-04 10:17:00,
2013-10-04 06:23:00,63.2,60.8,30.09,ENE,69,0.0,0.0,92,0.00,,,0.00,Wunderground v.1.15,2013-10-04 10:23:00,
2013-10-04 06:28:00,63.2,60.8,30.09,ENE,69,0.0,0.0,92,0.00,,,0.00,Wunderground v.1.15,2013-10-04 10:28:00,
2013-10-04 06:33:00,63.2,60.8,30.09,ENE,69,0.0,0.0,92,0.00,,,0.00,Wunderground v.1.15,2013-10-04 10:33:00,
2013-10-04 06:39:00,63.2,60.8,30.09,ENE,69,0.0,0.0,92,0.00,,,0.00,Wunderground v.1.15,2013-10-04 10:39:00,
2013-10-04 06:44:00,63.2,60.8,30.09,ENE,69,0.0,0.0,92,0.00,,,0.00,Wunderground v.1.15,2013-10-04 10:44:00,
2013-10-04 06:49:00,63.2,60.8,30.09,ENE,69,0.0,0.0,92,0.00,,,0.00,Wunderground v.1.15,2013-10-04 10:49:00,
2013-10-04 06:55:00,63.4,60.7,30.10,ENE,69,0.0,0.0,91,0.00,,,0.00,Wunderground v.1.15,2013-10-04 10:55:00,
2013-10-04 07:00:00,63.4,60.7,30.10,ENE,69,0.0,0.0,91,0.00,,,0.00,Wunderground v.1.15,2013-10-04 11:00:00,
2013-10-04 07:06:00,63.5,60.8,30.10,ENE,69,0.0,0.0,91,0.00,,,0.00,Wunderground v.1.15,2013-10-04 11:06:00,
2013-10-04 07:12:00,63.7,61.0,30.10,ENE,70,0.0,0.0,91,0.00,,,0.00,Wunderground v.1.15,2013-10-04 11:12:00,
2013-10-04 07:17:00,63.7,61.0,30.10,ENE,69,0.0,0.0,91,0.00,,,0.00,Wunderground v.1.15,2013-10-04 11:17:00,
2013-10-04 07:22:00,63.7,61.0,30.10,ENE,65,0.0,0.0,91,0.00,,,0.00,Wunderground v.1.15,2013-10-04 11:22:00,
2013-10-04 07:28:00,63.7,61.3,30.10,ENE,65,0.0,0.0,92,0.00,,,0.00,Wunderground v.1.15,2013-10-04 11:28:00,
2013-10-04 07:33:00,63.7,61.3,30.10,ENE,65,0.0,0.0,92,0.00,,,0.00,Wunderground v.1.15,2013-10-04 11:33:00,
2013-10-04 07:39:00,63.9,61.5,30.10,ENE,65,0.0,0.0,92,0.00,,,0.00,Wunderground v.1.15,2013-10-04 11:39:00,
2013-10-04 07:44:00,63.9,61.5,30.10,ENE,65,0.0,0.0,92,0.00,,,0.00,Wunderground v.1.15,2013-10-04 11:44:00,
2013-10-04 07:50:00,64.0,61.6,30.10,ENE,65,0.0,0.0,92,0.00,,,0.00,Wunderground v.1.15,2013-10-04 11:50:00,
2013-10-04 07:55:00,64.0,61.6,30.12,ENE,65,0.0,0.0,92,0.00,,,0.00,Wunderground v.1.15,2013-10-04 11:55:00,
2013-10-04 08:01:00,64.0,61.9,30.12,ENE,65,0.0,0.0,93,0.00,,,0.00,Wunderground v.1.15,2013-10-04 12:01:00,
2013-10-04 08:06:00,64.0,61.9,30.12,ENE,65,0.0,0.0,93,0.00,,,0.00,Wunderground v.1.15,2013-10-04 12:06:00,
2013-10-04 08:12:00,64.0,61.9,30.12,ENE,65,0.0,0.0,93,0.00,,,0.00,Wunderground v.1.15,2013-10-04 12:12:00,
2013-10-04 08:17:00,64.0,62.2,30.12,ENE,65,0.0,0.0,94,0.00,,,0.00,Wunderground v.1.15,2013-10-04 12:17:00,
2013-10-04 08:22:00,64.2,62.1,30.12,ENE,65,0.0,0.0,93,0.00,,,0.00,Wunderground v.1.15,2013-10-04 12:22:00,
2013-10-04 08:28:00,64.2,62.1,30.12,ENE,65,0.0,0.0,93,0.00,,,0.00,Wunderground v.1.15,2013-10-04 12:28:00,
2013-10-04 08:33:00,64.3,61.9,30.12,ENE,65,0.0,0.0,92,0.00,,,0.00,Wunderground v.1.15,2013-10-04 12:33:00,
2013-10-04 08:39:00,64.7,62.3,30.12,ENE,65,0.0,0.0,92,0.00,,,0.00,Wunderground v.1.15,2013-10-04 12:39:00,
2013-10-04 08:44:00,64.8,62.7,30.12,ENE,65,0.0,0.0,93,0.00,,,0.00,Wunderground v.1.15,2013-10-04 12:44:00,
2013-10-04 08:50:00,65.0,62.6,30.13,ENE,65,0.0,0.0,92,0.00,,,0.00,Wunderground v.1.15,2013-10-04 12:50:00,
2013-10-04 08:55:00,65.2,62.2,30.13,ENE,65,0.0,0.0,90,0.00,,,0.00,Wunderground v.1.15,2013-10-04 12:55:00,
2013-10-04 09:01:00,65.3,62.0,30.13,ENE,65,0.0,0.0,89,0.00,,,0.00,Wunderground v.1.15,2013-10-04 13:01:00,
2013-10-04 09:06:00,65.5,62.2,30.13,ENE,65,0.0,0.0,89,0.00,,,0.00,Wunderground v.1.15,2013-10-04 13:06:00,
2013-10-04 09:13:00,65.6,61.3,30.13,ENE,65,0.0,0.0,86,0.00,,,0.00,Wunderground v.1.15,2013-10-04 13:13:00,
2013-10-04 09:18:00,65.6,61.3,30.13,SSE,157,0.0,0.0,86,0.00,,,0.00,Wunderground v.1.15,2013-10-04 13:18:00,
2013-10-04 09:23:00,65.8,61.5,30.13,SSE,160,0.0,0.0,86,0.00,,,0.00,Wunderground v.1.15,2013-10-04 13:23:00,
2013-10-04 09:29:00,66.0,61.4,30.13,SSE,160,0.0,0.0,85,0.00,,,0.00,Wunderground v.1.15,2013-10-04 13:29:00,
2013-10-04 09:34:00,66.0,60.7,30.13,SSE,160,0.0,0.0,83,0.00,,,0.00,Wunderground v.1.15,2013-10-04 13:34:00,
2013-10-04 09:40:00,66.1,61.1,30.13,SSE,160,0.0,0.0,84,0.00,,,0.00,Wunderground v.1.15,2013-10-04 13:40:00,
2013-10-04 09:45:00,66.3,61.7,30.13,SSE,160,0.0,0.0,85,0.00,,,0.00,Wunderground v.1.15,2013-10-04 13:45:00,
2013-10-04 09:51:00,66.4,61.1,30.14,SSE,160,0.0,0.0,83,0.00,,,0.00,Wunderground v.1.15,2013-10-04 13:51:00,
2013-10-04 09:56:00,66.4,61.1,30.14,SSE,160,0.0,0.0,83,0.00,,,0.00,Wunderground v.1.15,2013-10-04 13:56:00,
2013-10-04 10:02:00,66.6,60.6,30.14,SSE,160,0.0,0.0,81,0.00,,,0.00,Wunderground v.1.15,2013-10-04 14:02:00,
2013-10-04 10:07:00,66.9,61.2,30.15,SSE,160,0.0,0.0,82,0.00,,,0.00,Wunderground v.1.15,2013-10-04 14:07:00,
2013-10-04 10:13:00,67.1,61.1,30.15,SSE,160,0.0,0.0,81,0.00,,,0.00,Wunderground v.1.15,2013-10-04 14:13:00,
2013-10-04 10:18:00,67.1,60.7,30.15,SSE,160,0.0,2.0,80,0.00,,,0.00,Wunderground v.1.15,2013-10-04 14:18:00,
2013-10-04 10:24:00,67.6,61.6,30.15,SSE,160,0.0,0.0,81,0.00,,,0.00,Wunderground v.1.15,2013-10-04 14:24:00,
2013-10-04 10:29:00,67.9,61.5,30.15,SSE,160,0.0,0.0,80,0.00,,,0.00,Wunderground v.1.15,2013-10-04 14:29:00,
2013-10-04 10:35:00,68.3,61.9,30.15,SSE,151,1.0,3.0,80,0.00,,,0.00,Wunderground v.1.15,2013-10-04 14:35:00,
2013-10-04 10:41:00,68.3,61.9,30.15,SSE,150,1.0,1.0,80,0.00,,,0.00,Wunderground v.1.15,2013-10-04 14:41:00,
2013-10-04 10:46:00,68.4,62.0,30.15,SSE,150,0.0,1.0,80,0.00,,,0.00,Wunderground v.1.15,2013-10-04 14:46:00,
2013-10-04 10:51:00,68.4,61.6,30.15,SSE,148,0.0,0.0,79,0.00,,,0.00,Wunderground v.1.15,2013-10-04 14:51:00,
2013-10-04 10:57:00,68.6,61.8,30.15,SSE,148,0.0,0.0,79,0.00,,,0.00,Wunderground v.1.15,2013-10-04 14:57:00,
2013-10-04 11:03:00,68.6,61.5,30.15,SE,146,0.0,3.0,78,0.00,,,0.00,Wunderground v.1.15,2013-10-04 15:03:00,
2013-10-04 11:08:00,68.8,62.0,30.15,SE,145,1.0,3.0,79,0.00,,,0.00,Wunderground v.1.15,2013-10-04 15:08:00,
2013-10-04 11:13:00,68.9,62.1,30.15,SE,145,0.0,1.0,79,0.00,,,0.00,Wunderground v.1.15,2013-10-04 15:13:00,
2013-10-04 11:19:00,69.6,62.8,30.15,SE,136,1.0,3.0,79,0.00,,,0.00,Wunderground v.1.15,2013-10-04 15:19:00,
2013-10-04 11:23:00,69.8,62.3,30.15,SE,133,1.0,3.0,77,0.00,,,0.00,Wunderground v.1.15,2013-10-04 15:23:00,
2013-10-04 11:29:00,69.8,62.3,30.15,SE,132,1.0,1.0,77,0.00,,,0.00,Wunderground v.1.15,2013-10-04 15:29:00,
2013-10-04 11:34:00,69.9,62.4,30.15,SE,131,1.0,3.0,77,0.00,,,0.00,Wunderground v.1.15,2013-10-04 15:34:00,
2013-10-04 11:40:00,70.4,63.2,30.15,East,99,2.0,3.0,78,0.00,,,0.00,Wunderground v.1.15,2013-10-04 15:40:00,
2013-10-04 11:46:00,70.4,62.8,30.15,East,89,2.0,3.0,77,0.00,,,0.00,Wunderground v.1.15,2013-10-04 15:46:00,
2013-10-04 11:52:00,70.6,63.0,30.15,East,86,3.0,3.0,77,0.00,,,0.00,Wunderground v.1.15,2013-10-04 15:52:00,
2013-10-04 11:57:00,70.4,62.8,30.15,East,84,2.0,4.0,77,0.00,,,0.00,Wunderground v.1.15,2013-10-04 15:57:00,
2013-10-04 12:02:00,70.8,63.6,30.15,East,84,1.0,3.0,78,0.00,,,0.00,Wunderground v.1.15,2013-10-04 16:02:00,
2013-10-04 12:08:00,70.9,63.3,30.14,ENE,65,2.0,5.0,77,0.00,,,0.00,Wunderground v.1.15,2013-10-04 16:08:00,
2013-10-04 12:13:00,70.9,63.3,30.14,East,87,2.0,4.0,77,0.00,,,0.00,Wunderground v.1.15,2013-10-04 16:13:00,
2013-10-04 12:19:00,70.8,64.0,30.14,ENE,66,2.0,3.0,79,0.00,,,0.00,Wunderground v.1.15,2013-10-04 16:19:00,
2013-10-04 12:24:00,70.8,63.2,30.14,ENE,66,2.0,4.0,77,0.00,,,0.00,Wunderground v.1.15,2013-10-04 16:24:00,
2013-10-04 12:30:00,70.6,63.0,30.14,ENE,65,3.0,3.0,77,0.00,,,0.00,Wunderground v.1.15,2013-10-04 16:30:00,
2013-10-04 12:35:00,70.8,63.6,30.14,ENE,65,2.0,3.0,78,0.00,,,0.00,Wunderground v.1.15,2013-10-04 16:35:00,
2013-10-04 12:41:00,70.9,62.6,30.14,ENE,77,2.0,3.0,75,0.00,,,0.00,Wunderground v.1.15,2013-10-04 16:41:00,
2013-10-04 12:46:00,70.9,62.6,30.14,ENE,77,1.0,3.0,75,0.00,,,0.00,Wunderground v.1.15,2013-10-04 16:46:00,
2013-10-04 12:51:00,71.5,63.5,30.13,ENE,75,0.0,3.0,76,0.00,,,0.00,Wunderground v.1.15,2013-10-04 16:51:00,
2013-10-04 12:57:00,72.0,64.0,30.13,ENE,68,1.0,6.0,76,0.00,,,0.00,Wunderground v.1.15,2013-10-04 16:57:00,
2013-10-04 13:02:00,72.1,64.5,30.13,ENE,67,3.0,5.0,77,0.00,,,0.00,Wunderground v.1.15,2013-10-04 17:02:00,
2013-10-04 13:08:00,72.3,64.7,30.13,ENE,66,3.0,5.0,77,0.00,,,0.00,Wunderground v.1.15,2013-10-04 17:08:00,
2013-10-04 13:13:00,72.5,64.9,30.13,ENE,58,2.0,3.0,77,0.00,,,0.00,Wunderground v.1.15,2013-10-04 17:13:00,
2013-10-04 13:19:00,72.1,64.5,30.13,ENE,58,2.0,5.0,77,0.00,,,0.00,Wunderground v.1.15,2013-10-04 17:19:00,
2013-10-04 13:24:00,72.3,64.7,30.13,ENE,58,2.0,4.0,77,0.00,,,0.00,Wunderground v.1.15,2013-10-04 17:24:00,
2013-10-04 13:30:00,72.3,64.3,30.13,ENE,60,2.0,4.0,76,0.00,,,0.00,Wunderground v.1.15,2013-10-04 17:30:00,
2013-10-04 13:35:00,72.3,64.7,30.13,ENE,65,2.0,4.0,77,0.00,,,0.00,Wunderground v.1.15,2013-10-04 17:35:00,
2013-10-04 14:02:00,73.2,65.2,30.11,ENE,66,1.0,3.0,76,0.00,,,0.00,Wunderground v.1.15,2013-10-04 18:02:00,
2013-10-04 14:07:00,73.2,64.4,30.11,ENE,68,2.0,6.0,74,0.00,,,0.00,Wunderground v.1.15,2013-10-04 18:07:00,
2013-10-04 14:13:00,73.0,64.2,30.11,NE,51,3.0,4.0,74,0.00,,,0.00,Wunderground v.1.15,2013-10-04 18:13:00,
2013-10-04 14:18:00,72.8,64.4,30.11,NE,53,4.0,5.0,75,0.00,,,0.00,Wunderground v.1.15,2013-10-04 18:18:00,
2013-10-04 14:24:00,72.8,64.4,30.11,NE,45,3.0,5.0,75,0.00,,,0.00,Wunderground v.1.15,2013-10-04 18:24:00,
2013-10-04 14:29:00,73.0,64.6,30.11,NE,47,2.0,2.0,75,0.00,,,0.00,Wunderground v.1.15,2013-10-04 18:29:00,
2013-10-04 14:35:00,73.3,65.3,30.10,NE,47,1.0,4.0,76,0.00,,,0.00,Wunderground v.1.15,2013-10-04 18:35:00,
2013-10-04 14:41:00,73.3,64.9,30.10,NE,47,1.0,2.0,75,0.00,,,0.00,Wunderground v.1.15,2013-10-04 18:41:00,
2013-10-04 14:46:00,73.3,64.9,30.10,NE,47,1.0,2.0,75,0.00,,,0.00,Wunderground v.1.15,2013-10-04 18:46:00,
2013-10-04 14:51:00,73.3,64.9,30.10,NE,47,1.0,2.0,75,0.00,,,0.00,Wunderground v.1.15,2013-10-04 18:51:00,
2013-10-04 14:57:00,74.0,64.4,30.10,NE,49,1.0,4.0,72,0.00,,,0.00,Wunderground v.1.15,2013-10-04 18:57:00,
2013-10-04 15:03:00,74.6,65.0,30.10,NE,49,2.0,5.0,72,0.00,,,0.00,Wunderground v.1.15,2013-10-04 19:03:00,
2013-10-04 15:08:00,75.1,64.6,30.09,NE,56,3.0,5.0,70,0.00,,,0.00,Wunderground v.1.15,2013-10-04 19:08:00,
2013-10-04 15:14:00,75.4,63.2,30.09,NE,56,3.0,3.0,66,0.00,,,0.00,Wunderground v.1.15,2013-10-04 19:14:00,
2013-10-04 15:19:00,76.0,63.4,30.09,NE,56,1.0,1.0,65,0.00,,,0.00,Wunderground v.1.15,2013-10-04 19:19:00,
2013-10-04 15:25:00,75.8,63.6,30.09,ENE,61,1.0,5.0,66,0.00,,,0.00,Wunderground v.1.15,2013-10-04 19:25:00,
2013-10-04 15:30:00,75.8,64.1,30.09,ENE,64,2.0,2.0,67,0.00,,,0.00,Wunderground v.1.15,2013-10-04 19:30:00,
2013-10-04 15:36:00,75.4,64.5,30.09,ENE,63,2.0,5.0,69,0.00,,,0.00,Wunderground v.1.15,2013-10-04 19:36:00,
2013-10-04 15:41:00,75.8,64.9,30.09,NE,52,2.0,4.0,69,0.00,,,0.00,Wunderground v.1.15,2013-10-04 19:41:00,
2013-10-04 15:47:00,75.4,64.1,30.09,ENE,68,3.0,4.0,68,0.00,,,0.00,Wunderground v.1.15,2013-10-04 19:47:00,
2013-10-04 15:53:00,75.4,64.5,30.09,ENE,69,3.0,4.0,69,0.00,,,0.00,Wunderground v.1.15,2013-10-04 19:53:00,
2013-10-04 15:58:00,75.1,64.2,30.09,ENE,64,2.0,4.0,69,0.00,,,0.00,Wunderground v.1.15,2013-10-04 19:58:00,
2013-10-04 16:04:00,75.1,64.6,30.09,ENE,64,3.0,5.0,70,0.00,,,0.00,Wunderground v.1.15,2013-10-04 20:04:00,
2013-10-04 16:09:00,75.3,64.8,30.08,ENE,60,3.0,4.0,70,0.00,,,0.00,Wunderground v.1.15,2013-10-04 20:09:00,
2013-10-04 16:15:00,74.9,64.5,30.08,ENE,71,3.0,4.0,70,0.00,,,0.00,Wunderground v.1.15,2013-10-04 20:15:00,
2013-10-04 16:20:00,74.9,65.3,30.08,ENE,66,2.0,3.0,72,0.00,,,0.00,Wunderground v.1.15,2013-10-04 20:20:00,
2013-10-04 16:25:00,75.1,65.9,30.08,ENE,65,1.0,3.0,73,0.00,,,0.00,Wunderground v.1.15,2013-10-04 20:25:00,
2013-10-04 16:31:00,75.4,64.9,30.08,ENE,65,1.0,4.0,70,0.00,,,0.00,Wunderground v.1.15,2013-10-04 20:31:00,
2013-10-04 16:37:00,75.3,65.6,30.08,ENE,65,2.0,4.0,72,0.00,,,0.00,Wunderground v.1.15,2013-10-04 20:37:00,
2013-10-04 16:42:00,75.4,66.1,30.08,NE,52,2.0,3.0,73,0.00,,,0.00,Wunderground v.1.15,2013-10-04 20:42:00,
2013-10-04 16:48:00,75.1,65.1,30.08,ESE,102,1.0,3.0,71,0.00,,,0.00,Wunderground v.1.15,2013-10-04 20:48:00,
2013-10-04 16:54:00,74.7,64.7,30.07,East,98,2.0,5.0,71,0.00,,,0.00,Wunderground v.1.15,2013-10-04 20:54:00,
2013-10-04 17:00:00,74.6,64.6,30.07,ENE,73,1.0,1.0,71,0.00,,,0.00,Wunderground v.1.15,2013-10-04 21:00:00,
2013-10-04 17:05:00,74.6,64.6,30.07,ENE,74,1.0,4.0,71,0.00,,,0.00,Wunderground v.1.15,2013-10-04 21:05:00,
2013-10-04 17:11:00,74.6,65.0,30.07,ENE,66,1.0,2.0,72,0.00,,,0.00,Wunderground v.1.15,2013-10-04 21:11:00,
2013-10-04 17:16:00,74.6,65.0,30.07,ENE,66,1.0,3.0,72,0.00,,,0.00,Wunderground v.1.15,2013-10-04 21:16:00,
2013-10-04 17:22:00,74.6,65.0,30.07,ENE,65,2.0,3.0,72,0.00,,,0.00,Wunderground v.1.15,2013-10-04 21:22:00,
2013-10-04 17:27:00,74.6,65.0,30.07,ENE,65,1.0,3.0,72,0.00,,,0.00,Wunderground v.1.15,2013-10-04 21:27:00,
2013-10-04 17:32:00,74.6,65.0,30.07,ENE,65,0.0,2.0,72,0.00,,,0.00,Wunderground v.1.15,2013-10-04 21:32:00,
2013-10-04 17:38:00,74.4,65.2,30.08,ENE,65,0.0,2.0,73,0.00,,,0.00,Wunderground v.1.15,2013-10-04 21:38:00,
2013-10-04 17:43:00,74.4,64.8,30.08,ENE,65,0.0,0.0,72,0.00,,,0.00,Wunderground v.1.15,2013-10-04 21:43:00,
2013-10-04 17:49:00,74.4,64.8,30.08,ENE,65,0.0,0.0,72,0.00,,,0.00,Wunderground v.1.15,2013-10-04 21:49:00,
2013-10-04 17:54:00,74.4,65.2,30.08,ENE,65,0.0,0.0,73,0.00,,,0.00,Wunderground v.1.15,2013-10-04 21:54:00,
2013-10-04 18:00:00,74.4,65.6,30.08,ENE,65,0.0,0.0,74,0.00,,,0.00,Wunderground v.1.15,2013-10-04 22:00:00,
2013-10-04 18:05:00,74.2,65.0,30.08,ENE,65,0.0,0.0,73,0.00,,,0.00,Wunderground v.1.15,2013-10-04 22:05:00,
2013-10-04 18:11:00,74.2,65.4,30.08,ENE,62,0.0,0.0,74,0.00,,,0.00,Wunderground v.1.15,2013-10-04 22:11:00,
2013-10-04 18:16:00,74.0,65.2,30.08,ENE,62,0.0,0.0,74,0.00,,,0.00,Wunderground v.1.15,2013-10-04 22:16:00,
2013-10-04 18:22:00,74.0,65.6,30.08,ENE,62,0.0,0.0,75,0.00,,,0.00,Wunderground v.1.15,2013-10-04 22:22:00,
2013-10-04 18:27:00,74.0,66.0,30.08,ENE,62,0.0,0.0,76,0.00,,,0.00,Wunderground v.1.15,2013-10-04 22:27:00,
2013-10-04 18:32:00,73.9,66.2,30.08,ENE,62,0.0,0.0,77,0.00,,,0.00,Wunderground v.1.15,2013-10-04 22:32:00,
2013-10-04 18:38:00,73.7,66.8,30.08,ENE,62,0.0,0.0,79,0.00,,,0.00,Wunderground v.1.15,2013-10-04 22:38:00,
2013-10-04 18:43:00,73.3,66.4,30.08,ENE,62,0.0,0.0,79,0.00,,,0.00,Wunderground v.1.15,2013-10-04 22:43:00,
2013-10-04 18:49:00,72.8,66.3,30.08,ENE,62,0.0,0.0,80,0.00,,,0.00,Wunderground v.1.15,2013-10-04 22:49:00,
2013-10-04 18:54:00,72.5,66.3,30.08,ENE,62,0.0,0.0,81,0.00,,,0.00,Wunderground v.1.15,2013-10-04 22:54:00,
2013-10-04 19:00:00,72.3,66.5,30.08,ENE,62,0.0,0.0,82,0.00,,,0.00,Wunderground v.1.15,2013-10-04 23:00:00,
2013-10-04 19:05:00,72.0,66.6,30.08,ENE,62,0.0,0.0,83,0.00,,,0.00,Wunderground v.1.15,2013-10-04 23:05:00,
2013-10-04 19:11:00,71.8,66.4,30.08,ENE,62,0.0,0.0,83,0.00,,,0.00,Wunderground v.1.15,2013-10-04 23:11:00,
2013-10-04 19:16:00,71.5,66.4,30.08,ENE,62,0.0,0.0,84,0.00,,,0.00,Wunderground v.1.15,2013-10-04 23:16:00,
2013-10-04 19:22:00,71.1,66.0,30.08,ENE,62,0.0,0.0,84,0.00,,,0.00,Wunderground v.1.15,2013-10-04 23:22:00,
2013-10-04 19:27:00,70.9,65.8,30.08,ENE,62,0.0,0.0,84,0.00,,,0.00,Wunderground v.1.15,2013-10-04 23:27:00,
2013-10-04 19:32:00,70.8,65.7,30.08,ENE,62,0.0,0.0,84,0.00,,,0.00,Wunderground v.1.15,2013-10-04 23:32:00,
2013-10-04 19:38:00,70.6,65.5,30.08,ENE,62,0.0,0.0,84,0.00,,,0.00,Wunderground v.1.15,2013-10-04 23:38:00,
2013-10-04 19:43:00,70.4,65.0,30.08,ENE,62,0.0,0.0,83,0.00,,,0.00,Wunderground v.1.15,2013-10-04 23:43:00,
2013-10-04 19:49:00,70.4,65.0,30.08,ENE,62,0.0,0.0,83,0.00,,,0.00,Wunderground v.1.15,2013-10-04 23:49:00,
2013-10-04 19:54:00,70.3,64.9,30.08,ENE,62,0.0,0.0,83,0.00,,,0.00,Wunderground v.1.15,2013-10-04 23:54:00,
2013-10-04 19:59:00,70.3,64.9,30.08,ENE,62,0.0,0.0,83,0.00,,,0.00,Wunderground v.1.15,2013-10-04 23:59:00,
2013-10-04 20:05:00,70.1,64.7,30.08,ENE,62,0.0,0.0,83,0.00,,,0.00,Wunderground v.1.15,2013-10-05 00:05:00,
2013-10-04 20:10:00,70.1,64.7,30.08,ENE,62,0.0,0.0,83,0.00,,,0.00,Wunderground v.1.15,2013-10-05 00:10:00,
2013-10-04 20:16:00,70.1,64.7,30.08,ENE,62,0.0,0.0,83,0.00,,,0.00,Wunderground v.1.15,2013-10-05 00:16:00,
2013-10-04 20:22:00,70.1,64.7,30.08,ENE,62,0.0,0.0,83,0.00,,,0.00,Wunderground v.1.15,2013-10-05 00:22:00,
2013-10-04 20:27:00,69.9,64.5,30.08,ENE,62,0.0,0.0,83,0.00,,,0.00,Wunderground v.1.15,2013-10-05 00:27:00,
2013-10-04 20:33:00,69.9,64.5,30.08,ENE,62,0.0,0.0,83,0.00,,,0.00,Wunderground v.1.15,2013-10-05 00:33:00,
2013-10-04 20:39:00,69.9,64.2,30.09,ENE,62,0.0,0.0,82,0.00,,,0.00,Wunderground v.1.15,2013-10-05 00:39:00,
2013-10-04 20:44:00,69.9,64.2,30.09,ENE,62,0.0,0.0,82,0.00,,,0.00,Wunderground v.1.15,2013-10-05 00:44:00,
2013-10-04 20:49:00,69.9,64.2,30.09,ENE,62,0.0,0.0,82,0.00,,,0.00,Wunderground v.1.15,2013-10-05 00:49:00,
2013-10-04 20:55:00,69.9,64.2,30.09,ENE,62,0.0,0.0,82,0.00,,,0.00,Wunderground v.1.15,2013-10-05 00:55:00,
2013-10-04 21:00:00,69.9,64.2,30.09,ENE,62,0.0,0.0,82,0.00,,,0.00,Wunderground v.1.15,2013-10-05 01:00:00,
2013-10-04 21:06:00,70.1,64.3,30.09,ENE,62,0.0,0.0,82,0.00,,,0.00,Wunderground v.1.15,2013-10-05 01:06:00,
2013-10-04 21:11:00,70.1,64.3,30.09,ENE,62,0.0,0.0,82,0.00,,,0.00,Wunderground v.1.15,2013-10-05 01:11:00,
2013-10-04 21:17:00,70.1,64.3,30.09,ENE,62,0.0,0.0,82,0.00,,,0.00,Wunderground v.1.15,2013-10-05 01:17:00,
2013-10-04 21:22:00,70.1,64.0,30.10,ENE,62,0.0,0.0,81,0.00,,,0.00,Wunderground v.1.15,2013-10-05 01:22:00,
2013-10-04 21:28:00,70.1,64.0,30.10,ENE,62,0.0,0.0,81,0.00,,,0.00,Wunderground v.1.15,2013-10-05 01:28:00,
2013-10-04 21:33:00,70.3,64.2,30.10,ENE,62,0.0,0.0,81,0.00,,,0.00,Wunderground v.1.15,2013-10-05 01:33:00,
2013-10-04 21:39:00,70.3,64.2,30.10,ENE,62,0.0,0.0,81,0.00,,,0.00,Wunderground v.1.15,2013-10-05 01:39:00,
2013-10-04 21:44:00,70.1,64.0,30.10,ENE,62,0.0,0.0,81,0.00,,,0.00,Wunderground v.1.15,2013-10-05 01:44:00,
2013-10-04 21:50:00,70.3,64.2,30.09,ENE,62,0.0,0.0,81,0.00,,,0.00,Wunderground v.1.15,2013-10-05 01:50:00,
2013-10-04 21:55:00,70.8,64.3,30.09,ENE,62,0.0,0.0,80,0.00,,,0.00,Wunderground v.1.15,2013-10-05 01:55:00,
2013-10-04 22:01:00,70.8,64.7,30.09,ENE,62,0.0,0.0,81,0.00,,,0.00,Wunderground v.1.15,2013-10-05 02:01:00,
2013-10-04 22:06:00,70.3,64.2,30.10,ENE,62,0.0,0.0,81,0.00,,,0.00,Wunderground v.1.15,2013-10-05 02:06:00,
2013-10-04 22:12:00,70.1,64.3,30.10,ENE,62,0.0,0.0,82,0.00,,,0.00,Wunderground v.1.15,2013-10-05 02:12:00,
2013-10-04 22:17:00,69.9,64.2,30.10,ENE,62,0.0,0.0,82,0.00,,,0.00,Wunderground v.1.15,2013-10-05 02:17:00,
2013-10-04 22:22:00,69.8,64.4,30.10,ENE,62,0.0,0.0,83,0.00,,,0.00,Wunderground v.1.15,2013-10-05 02:22:00,
2013-10-04 22:28:00,69.8,64.4,30.10,ENE,62,0.0,0.0,83,0.00,,,0.00,Wunderground v.1.15,2013-10-05 02:28:00,
2013-10-04 22:34:00,69.6,64.5,30.10,ENE,62,0.0,0.0,84,0.00,,,0.00,Wunderground v.1.15,2013-10-05 02:34:00,
2013-10-04 22:39:00,69.4,64.4,30.11,ENE,62,0.0,0.0,84,0.00,,,0.00,Wunderground v.1.15,2013-10-05 02:39:00,
2013-10-04 22:44:00,69.3,64.3,30.11,ENE,62,0.0,0.0,84,0.00,,,0.00,Wunderground v.1.15,2013-10-05 02:44:00,
2013-10-04 22:50:00,69.3,64.3,30.10,ENE,62,0.0,0.0,84,0.00,,,0.00,Wunderground v.1.15,2013-10-05 02:50:00,
2013-10-04 22:55:00,69.3,64.3,30.10,ENE,62,0.0,0.0,84,0.00,,,0.00,Wunderground v.1.15,2013-10-05 02:55:00,
2013-10-04 23:01:00,69.3,64.3,30.10,ENE,62,0.0,0.0,84,0.00,,,0.00,Wunderground v.1.15,2013-10-05 03:01:00,
2013-10-04 23:06:00,69.3,64.3,30.10,ENE,62,0.0,0.0,84,0.00,,,0.00,Wunderground v.1.15,2013-10-05 03:06:00,
2013-10-04 23:12:00,69.3,64.3,30.10,ENE,62,0.0,0.0,84,0.00,,,0.00,Wunderground v.1.15,2013-10-05 03:12:00,
2013-10-04 23:18:00,69.3,64.3,30.10,ENE,62,0.0,0.0,84,0.00,,,0.00,Wunderground v.1.15,2013-10-05 03:18:00,
2013-10-04 23:23:00,69.3,64.3,30.10,ENE,62,0.0,0.0,84,0.00,,,0.00,Wunderground v.1.15,2013-10-05 03:23:00,
2013-10-04 23:29:00,69.3,64.3,30.10,ENE,62,0.0,0.0,84,0.00,,,0.00,Wunderground v.1.15,2013-10-05 03:29:00,
2013-10-04 23:34:00,69.1,64.1,30.10,ENE,62,0.0,0.0,84,0.00,,,0.00,Wunderground v.1.15,2013-10-05 03:34:00,
2013-10-04 23:40:00,69.1,64.4,30.10,ENE,62,0.0,0.0,85,0.00,,,0.00,Wunderground v.1.15,2013-10-05 03:40:00,
2013-10-04 23:45:00,68.9,64.2,30.10,ENE,62,0.0,0.0,85,0.00,,,0.00,Wunderground v.1.15,2013-10-05 03:45:00,
2013-10-04 23:51:00,68.8,64.4,30.09,ENE,62,0.0,0.0,86,0.00,,,0.00,Wunderground v.1.15,2013-10-05 03:51:00,
2013-10-04 23:56:00,68.6,64.2,30.09,ENE,62,0.0,0.0,86,0.00,,,0.00,Wunderground v.1.15,2013-10-05 03:56:00,